^^
Saratoga-Weather Station Historical Data
Daily Summary for March 31, 2020 Units:  Both    English   Metric
Daily Weekly Monthly Yearly Custom
  High: Low: Average:
Temperature: 54.7 °F /  12.6 °C 52 °F /  11.1 °C 52.9 °F /  11.6 °C
Dew Point: 52.5 °F /  11.4 °C 50 °F /  10 °C 51.3 °F /  10.7 °C
Humidity: 96% 91% 94%
Wind Speed: 6.9mph /  11.1km/h - 0.1mph /  0.2km/h
Wind Gust: 19mph /  30.6km/h - -
Wind- - West
Pressure: 29.9 in /  1013.9 hPa 29.8 in /  1009.1 hPa -
Precipitation: 0.07 in /  1.8 mm    
Historical Graphs
 
 
Tabular Data for March 31, 2020
Time Temperature Dew Point Pressure Wind Wind Speed Wind Gust Humidity Rainfall Rate (Hourly) solar
00:01 52.5 °F /  11.4 °C 51.1 °F /  10.6 °C 29.8in /  1009.1hPa Calm     95% 0.01in /  0.2mm 0 W/m2
00:06 52.3 °F /  11.3 °C 51.3 °F /  10.7 °C 29.8in /  1009.1hPa Calm     96% 0.02in /  0.5mm 0 W/m2
00:11 52.3 °F /  11.3 °C 51.3 °F /  10.7 °C 29.8in /  1009.1hPa Calm     96% 0.02in /  0.5mm 0 W/m2
00:16 52.3 °F /  11.3 °C 51.3 °F /  10.7 °C 29.8in /  1009.1hPa Calm   13mph /  20.9km/h 96% 0.01in /  0.2mm 0 W/m2
00:21 52.3 °F /  11.3 °C 51.3 °F /  10.7 °C 29.8in /  1009.1hPa Calm     96% 0.01in /  0.2mm 0 W/m2
00:26 52.3 °F /  11.3 °C 51.3 °F /  10.7 °C 29.8in /  1009.1hPa Calm   13mph /  20.9km/h 96% 0.01in /  0.2mm 0 W/m2
00:31 52.3 °F /  11.3 °C 51.3 °F /  10.7 °C 29.8in /  1009.1hPa Calm   15mph /  24.1km/h 96% 0.02in /  0.5mm 0 W/m2
00:36 52.3 °F /  11.3 °C 51.3 °F /  10.7 °C 29.8in /  1009.5hPa Calm   2mph /  3.2km/h 96% 0.02in /  0.5mm 0 W/m2
00:41 52.3 °F /  11.3 °C 51.3 °F /  10.7 °C 29.8in /  1009.5hPa Calm   15mph /  24.1km/h 96% 0.02in /  0.5mm 0 W/m2
00:46 52.3 °F /  11.3 °C 51.3 °F /  10.7 °C 29.8in /  1009.5hPa Calm     96% 0.02in /  0.5mm 0 W/m2
00:51 52.3 °F /  11.3 °C 51.3 °F /  10.7 °C 29.8in /  1009.5hPa Calm   14mph /  22.5km/h 96% 0.02in /  0.5mm 0 W/m2
00:56 52.3 °F /  11.3 °C 51.3 °F /  10.7 °C 29.8in /  1009.5hPa Calm     96% 0.02in /  0.5mm 0 W/m2
01:01 52.3 °F /  11.3 °C 51.3 °F /  10.7 °C 29.8in /  1009.5hPa Calm   12mph /  19.3km/h 96% 0.02in /  0.5mm 0 W/m2
01:06 52.3 °F /  11.3 °C 51.3 °F /  10.7 °C 29.8in /  1009.5hPa Calm     96% 0.02in /  0.5mm 0 W/m2
01:11 52.3 °F /  11.3 °C 51.3 °F /  10.7 °C 29.8in /  1009.5hPa Calm     96% 0.02in /  0.5mm 0 W/m2
01:16 52.5 °F /  11.4 °C 51.1 °F /  10.6 °C 29.8in /  1009.5hPa Calm   1mph /  1.6km/h 95% 0.02in /  0.5mm 0 W/m2
01:21 52.5 °F /  11.4 °C 51.1 °F /  10.6 °C 29.8in /  1009.5hPa Calm     95% 0.02in /  0.5mm 0 W/m2
01:26 52.5 °F /  11.4 °C 51.1 °F /  10.6 °C 29.8in /  1009.5hPa Calm     95% 0.02in /  0.5mm 0 W/m2
01:31 52.5 °F /  11.4 °C 51.1 °F /  10.6 °C 29.8in /  1009.5hPa SW 2.9mph /  4.7km/h 12mph /  19.3km/h 95% 0.01in /  0.2mm 0 W/m2
01:36 52.5 °F /  11.4 °C 51.1 °F /  10.6 °C 29.8in /  1009.5hPa West 4mph /  6.4km/h 4mph /  6.4km/h 95% 0.01in /  0.2mm 0 W/m2
01:41 52.5 °F /  11.4 °C 51.1 °F /  10.6 °C 29.8in /  1009.5hPa West 2.9mph /  4.7km/h 11mph /  17.7km/h 95% 0.01in /  0.2mm 0 W/m2
01:46 52.5 °F /  11.4 °C 51.1 °F /  10.6 °C 29.8in /  1009.8hPa Calm   1mph /  1.6km/h 95% 0.01in /  0.2mm 0 W/m2
01:51 52.5 °F /  11.4 °C 51.1 °F /  10.6 °C 29.8in /  1009.5hPa West 6.9mph /  11.1km/h 7mph /  11.3km/h 95% 0.01in /  0.2mm 0 W/m2
01:56 52.5 °F /  11.4 °C 51.1 °F /  10.6 °C 29.8in /  1009.5hPa Calm   1mph /  1.6km/h 95% 0.01in /  0.2mm 0 W/m2
02:01 52.5 °F /  11.4 °C 51.1 °F /  10.6 °C 29.8in /  1009.5hPa Calm     95% 0in /  0.0mm 0 W/m2
02:06 52.5 °F /  11.4 °C 51.1 °F /  10.6 °C 29.8in /  1009.5hPa Calm     95% 0in /  0.0mm 0 W/m2
02:11 52.5 °F /  11.4 °C 51.1 °F /  10.6 °C 29.8in /  1009.5hPa Calm   19mph /  30.6km/h 95% 0.01in /  0.2mm 0 W/m2
02:16 52.5 °F /  11.4 °C 51.1 °F /  10.6 °C 29.8in /  1009.1hPa Calm     95% 0.01in /  0.2mm 0 W/m2
02:21 52.5 °F /  11.4 °C 51.1 °F /  10.6 °C 29.8in /  1009.1hPa Calm   19mph /  30.6km/h 95% 0.01in /  0.2mm 0 W/m2
02:26 52.5 °F /  11.4 °C 51.1 °F /  10.6 °C 29.8in /  1009.1hPa Calm   10mph /  16.1km/h 95% 0.01in /  0.2mm 0 W/m2
02:31 52.5 °F /  11.4 °C 51.1 °F /  10.6 °C 29.8in /  1009.5hPa Calm   18mph /  29km/h 95% 0.01in /  0.2mm 0 W/m2
02:36 52.5 °F /  11.4 °C 51.1 °F /  10.6 °C 29.8in /  1009.5hPa Calm   7mph /  11.3km/h 95% 0.01in /  0.2mm 0 W/m2
02:41 52.5 °F /  11.4 °C 51.1 °F /  10.6 °C 29.8in /  1009.5hPa Calm     95% 0.01in /  0.2mm 0 W/m2
02:46 52.5 °F /  11.4 °C 51.1 °F /  10.6 °C 29.8in /  1009.5hPa Calm     95% 0.01in /  0.2mm 0 W/m2
02:51 52.7 °F /  11.5 °C 51.3 °F /  10.7 °C 29.8in /  1009.8hPa Calm     95% 0.01in /  0.2mm 0 W/m2
02:56 52.7 °F /  11.5 °C 51.1 °F /  10.6 °C 29.8in /  1009.8hPa Calm     94% 0.01in /  0.2mm 0 W/m2
03:01 52.9 °F /  11.6 °C 51.3 °F /  10.7 °C 29.8in /  1010.2hPa Calm     94% 0.01in /  0.2mm 0 W/m2
03:06 52.7 °F /  11.5 °C 51.1 °F /  10.6 °C 29.8in /  1009.8hPa Calm     94% 0.01in /  0.2mm 0 W/m2
03:11 52.9 °F /  11.6 °C 51.3 °F /  10.7 °C 29.8in /  1009.8hPa Calm     94% 0in /  0.0mm 0 W/m2
03:16 52.9 °F /  11.6 °C 51.3 °F /  10.7 °C 29.8in /  1010.2hPa Calm     94% 0in /  0.0mm 0 W/m2
03:21 52.9 °F /  11.6 °C 51.3 °F /  10.7 °C 29.8in /  1010.2hPa Calm     94% 0in /  0.0mm 0 W/m2
03:26 52.9 °F /  11.6 °C 51.3 °F /  10.7 °C 29.8in /  1010.2hPa Calm     94% 0in /  0.0mm 0 W/m2
03:31 52.9 °F /  11.6 °C 51.3 °F /  10.7 °C 29.8in /  1010.2hPa Calm     94% 0in /  0.0mm 0 W/m2
03:36 52.7 °F /  11.5 °C 51.1 °F /  10.6 °C 29.8in /  1010.2hPa Calm     94% 0in /  0.0mm 0 W/m2
03:41 52.7 °F /  11.5 °C 51.1 °F /  10.6 °C 29.8in /  1010.2hPa Calm   1mph /  1.6km/h 94% 0in /  0.0mm 0 W/m2
03:46 52.7 °F /  11.5 °C 51.1 °F /  10.6 °C 29.8in /  1010.2hPa Calm     94% 0in /  0.0mm 0 W/m2
03:51 52.9 °F /  11.6 °C 51.3 °F /  10.7 °C 29.8in /  1010.2hPa Calm     94% 0in /  0.0mm 0 W/m2
03:56 52.9 °F /  11.6 °C 51.3 °F /  10.7 °C 29.8in /  1010.2hPa Calm     94% 0in /  0.0mm 0 W/m2
04:01 52.9 °F /  11.6 °C 51.3 °F /  10.7 °C 29.8in /  1010.2hPa Calm     94% 0in /  0.0mm 0 W/m2
04:06 52.9 °F /  11.6 °C 51.3 °F /  10.7 °C 29.8in /  1010.2hPa Calm     94% 0in /  0.0mm 0 W/m2
04:12 52.9 °F /  11.6 °C 51.3 °F /  10.7 °C 29.8in /  1010.2hPa WNW 0.9mph /  1.4km/h 1mph /  1.6km/h 94% 0in /  0.0mm 0 W/m2
04:17 52.9 °F /  11.6 °C 51.3 °F /  10.7 °C 29.8in /  1010.2hPa Calm     94% 0in /  0.0mm 0 W/m2
04:22 52.7 °F /  11.5 °C 51.1 °F /  10.6 °C 29.8in /  1010.2hPa Calm     94% 0in /  0.0mm 0 W/m2
04:27 52.5 °F /  11.4 °C 50.9 °F /  10.5 °C 29.8in /  1010.2hPa Calm   1mph /  1.6km/h 94% 0in /  0.0mm 0 W/m2
04:32 52.5 °F /  11.4 °C 50.9 °F /  10.5 °C 29.8in /  1010.5hPa Calm     94% 0in /  0.0mm 0 W/m2
04:37 52.3 °F /  11.3 °C 50.7 °F /  10.4 °C 29.8in /  1010.2hPa Calm     94% 0in /  0.0mm 0 W/m2
04:42 52.3 °F /  11.3 °C 50.9 °F /  10.5 °C 29.8in /  1010.5hPa Calm     95% 0.01in /  0.2mm 0 W/m2
04:47 52.3 °F /  11.3 °C 50.9 °F /  10.5 °C 29.8in /  1010.5hPa Calm     95% 0.01in /  0.2mm 0 W/m2
04:52 52.3 °F /  11.3 °C 50.9 °F /  10.5 °C 29.8in /  1010.5hPa Calm   14mph /  22.5km/h 95% 0.01in /  0.2mm 0 W/m2
04:57 52.2 °F /  11.2 °C 50.7 °F /  10.4 °C 29.9in /  1010.8hPa Calm     95% 0.01in /  0.2mm 0 W/m2
05:02 52.3 °F /  11.3 °C 50.9 °F /  10.5 °C 29.9in /  1010.8hPa Calm   4mph /  6.4km/h 95% 0.01in /  0.2mm 0 W/m2
05:07 52.2 °F /  11.2 °C 50.7 °F /  10.4 °C 29.8in /  1010.5hPa Calm     95% 0.01in /  0.2mm 0 W/m2
05:12 52.3 °F /  11.3 °C 50.9 °F /  10.5 °C 29.8in /  1010.5hPa Calm     95% 0.01in /  0.2mm 0 W/m2
05:17 52.2 °F /  11.2 °C 50.7 °F /  10.4 °C 29.8in /  1010.5hPa Calm     95% 0.01in /  0.2mm 0 W/m2
05:22 52.3 °F /  11.3 °C 50.7 °F /  10.4 °C 29.9in /  1010.8hPa Calm     94% 0.01in /  0.2mm 0 W/m2
05:27 52.3 °F /  11.3 °C 50.7 °F /  10.4 °C 29.9in /  1010.8hPa Calm   1mph /  1.6km/h 94% 0.01in /  0.2mm 0 W/m2
05:32 52.5 °F /  11.4 °C 50.9 °F /  10.5 °C 29.9in /  1010.8hPa Calm   5mph /  8km/h 94% 0.01in /  0.2mm 0 W/m2
05:37 52.3 °F /  11.3 °C 50.9 °F /  10.5 °C 29.9in /  1010.8hPa Calm     95% 0.01in /  0.2mm 0 W/m2
05:42 52.3 °F /  11.3 °C 50.9 °F /  10.5 °C 29.9in /  1010.8hPa Calm   2mph /  3.2km/h 95% 0in /  0.0mm 0 W/m2
05:47 52.3 °F /  11.3 °C 50.9 °F /  10.5 °C 29.9in /  1010.8hPa Calm     95% 0in /  0.0mm 0 W/m2
05:52 52.2 °F /  11.2 °C 50.7 °F /  10.4 °C 29.9in /  1010.8hPa Calm     95% 0in /  0.0mm 0 W/m2
05:57 52.2 °F /  11.2 °C 50.7 °F /  10.4 °C 29.9in /  1011.2hPa Calm     95% 0in /  0.0mm 0 W/m2
06:02 52.2 °F /  11.2 °C 50.7 °F /  10.4 °C 29.9in /  1011.2hPa Calm     95% 0in /  0.0mm 0 W/m2
06:07 52.2 °F /  11.2 °C 50.7 °F /  10.4 °C 29.9in /  1011.2hPa Calm     95% 0in /  0.0mm 0 W/m2
06:12 52.2 °F /  11.2 °C 50.7 °F /  10.4 °C 29.9in /  1011.2hPa Calm     95% 0.01in /  0.2mm 0 W/m2
06:17 52.2 °F /  11.2 °C 50.7 °F /  10.4 °C 29.9in /  1011.2hPa Calm     95% 0.01in /  0.2mm 0 W/m2
06:22 52.2 °F /  11.2 °C 50.7 °F /  10.4 °C 29.9in /  1011.2hPa Calm     95% 0.01in /  0.2mm 0 W/m2
06:27 52.2 °F /  11.2 °C 50.7 °F /  10.4 °C 29.9in /  1011.2hPa Calm     95% 0.01in /  0.2mm 0 W/m2
06:32 52.2 °F /  11.2 °C 50.7 °F /  10.4 °C 29.9in /  1011.2hPa Calm     95% 0.01in /  0.2mm 0 W/m2
06:37 52.2 °F /  11.2 °C 50.7 °F /  10.4 °C 29.9in /  1011.2hPa Calm     95% 0.01in /  0.2mm 0 W/m2
06:42 52.2 °F /  11.2 °C 50.7 °F /  10.4 °C 29.9in /  1011.2hPa Calm   1mph /  1.6km/h 95% 0.01in /  0.2mm 0 W/m2
06:47 52.2 °F /  11.2 °C 50.7 °F /  10.4 °C 29.9in /  1011.5hPa Calm     95% 0.01in /  0.2mm 0 W/m2
06:52 52.2 °F /  11.2 °C 50.7 °F /  10.4 °C 29.9in /  1011.5hPa Calm     95% 0.01in /  0.2mm 0 W/m2
06:57 52.2 °F /  11.2 °C 50.7 °F /  10.4 °C 29.9in /  1011.2hPa Calm     95% 0.01in /  0.2mm 0 W/m2
07:02 52.2 °F /  11.2 °C 50.7 °F /  10.4 °C 29.9in /  1011.5hPa Calm     95% 0.01in /  0.2mm 0 W/m2
07:07 52.2 °F /  11.2 °C 50.7 °F /  10.4 °C 29.9in /  1011.5hPa Calm   2mph /  3.2km/h 95% 0.01in /  0.2mm 0 W/m2
07:12 52.2 °F /  11.2 °C 50.7 °F /  10.4 °C 29.9in /  1011.5hPa Calm     95% 0in /  0.0mm 0 W/m2
07:17 52.3 °F /  11.3 °C 50.9 °F /  10.5 °C 29.9in /  1011.5hPa Calm   2mph /  3.2km/h 95% 0in /  0.0mm 0 W/m2
07:22 52.3 °F /  11.3 °C 50.9 °F /  10.5 °C 29.9in /  1011.5hPa Calm     95% 0in /  0.0mm 0 W/m2
07:27 52.3 °F /  11.3 °C 50.9 °F /  10.5 °C 29.9in /  1011.9hPa Calm     95% 0in /  0.0mm 0 W/m2
07:32 52.3 °F /  11.3 °C 50.9 °F /  10.5 °C 29.9in /  1011.9hPa Calm     95% 0in /  0.0mm 0 W/m2
07:37 52.3 °F /  11.3 °C 50.9 °F /  10.5 °C 29.9in /  1011.9hPa Calm     95% 0in /  0.0mm 0 W/m2
07:42 52.3 °F /  11.3 °C 50.7 °F /  10.4 °C 29.9in /  1012.2hPa Calm     94% 0in /  0.0mm 0 W/m2
07:47 52.3 °F /  11.3 °C 50.7 °F /  10.4 °C 29.9in /  1012.2hPa Calm     94% 0in /  0.0mm 0 W/m2
07:52 52.2 °F /  11.2 °C 50.7 °F /  10.4 °C 29.9in /  1012.2hPa Calm     95% 0in /  0.0mm 0 W/m2
07:57 52.2 °F /  11.2 °C 50.7 °F /  10.4 °C 29.9in /  1012.2hPa Calm     95% 0in /  0.0mm 0 W/m2
08:02 52.2 °F /  11.2 °C 50.7 °F /  10.4 °C 29.9in /  1012.5hPa Calm     95% 0in /  0.0mm 0 W/m2
08:07 52.2 °F /  11.2 °C 50.7 °F /  10.4 °C 29.9in /  1012.5hPa Calm     95% 0in /  0.0mm 0 W/m2
08:12 52 °F /  11.1 °C 50.5 °F /  10.3 °C 29.9in /  1012.5hPa Calm   1mph /  1.6km/h 95% 0in /  0.0mm 0 W/m2
08:17 52 °F /  11.1 °C 50.5 °F /  10.3 °C 29.9in /  1012.5hPa Calm     95% 0in /  0.0mm 0 W/m2
08:22 52 °F /  11.1 °C 50.5 °F /  10.3 °C 29.9in /  1012.9hPa Calm     95% 0.01in /  0.2mm 7 W/m2
08:27 52 °F /  11.1 °C 50.5 °F /  10.3 °C 29.9in /  1012.9hPa Calm     95% 0.01in /  0.2mm 9 W/m2
08:32 52 °F /  11.1 °C 50.5 °F /  10.3 °C 29.9in /  1012.9hPa Calm     95% 0.01in /  0.2mm 11 W/m2
08:37 52 °F /  11.1 °C 50.5 °F /  10.3 °C 29.9in /  1012.9hPa Calm     95% 0.01in /  0.2mm 16 W/m2
08:42 52 °F /  11.1 °C 50.5 °F /  10.3 °C 29.9in /  1012.9hPa Calm     95% 0.01in /  0.2mm 19 W/m2
08:47 52 °F /  11.1 °C 50.5 °F /  10.3 °C 29.9in /  1012.9hPa Calm     95% 0.01in /  0.2mm 21 W/m2
08:52 52 °F /  11.1 °C 50.5 °F /  10.3 °C 29.9in /  1013.2hPa Calm     95% 0.01in /  0.2mm 25 W/m2
08:57 52 °F /  11.1 °C 50.5 °F /  10.3 °C 29.9in /  1013.2hPa Calm     95% 0.01in /  0.2mm 25 W/m2
09:02 52 °F /  11.1 °C 50.5 °F /  10.3 °C 29.9in /  1013.2hPa Calm     95% 0.01in /  0.2mm 39 W/m2
09:07 52 °F /  11.1 °C 50.5 °F /  10.3 °C 29.9in /  1013.2hPa Calm     95% 0.01in /  0.2mm 37 W/m2
09:13 52 °F /  11.1 °C 50.5 °F /  10.3 °C 29.9in /  1013.5hPa Calm     95% 0.01in /  0.2mm 32 W/m2
09:18 52 °F /  11.1 °C 50.5 °F /  10.3 °C 29.9in /  1013.5hPa Calm     95% 0.01in /  0.2mm 35 W/m2
09:23 52 °F /  11.1 °C 50.5 °F /  10.3 °C 29.9in /  1013.5hPa Calm     95% 0in /  0.0mm 33 W/m2
09:28 52 °F /  11.1 °C 50.5 °F /  10.3 °C 29.9in /  1013.5hPa Calm     95% 0in /  0.0mm 56 W/m2
09:33 52 °F /  11.1 °C 50.5 °F /  10.3 °C 29.9in /  1013.2hPa Calm   3mph /  4.8km/h 95% 0in /  0.0mm 65 W/m2
09:38 52 °F /  11.1 °C 50.5 °F /  10.3 °C 29.9in /  1013.2hPa Calm   9mph /  14.5km/h 95% 0in /  0.0mm 72 W/m2
09:43 52 °F /  11.1 °C 50.5 °F /  10.3 °C 29.9in /  1013.2hPa Calm   1mph /  1.6km/h 95% 0in /  0.0mm 56 W/m2
09:48 52 °F /  11.1 °C 50.4 °F /  10.2 °C 29.9in /  1013.2hPa Calm     94% 0in /  0.0mm 109 W/m2
09:53 52.2 °F /  11.2 °C 50.5 °F /  10.3 °C 29.9in /  1013.5hPa Calm   5mph /  8km/h 94% 0in /  0.0mm 93 W/m2
09:58 52.2 °F /  11.2 °C 50.5 °F /  10.3 °C 29.9in /  1013.5hPa Calm   1mph /  1.6km/h 94% 0in /  0.0mm 102 W/m2
10:03 52.3 °F /  11.3 °C 50.7 °F /  10.4 °C 29.9in /  1013.5hPa Calm     94% 0in /  0.0mm 65 W/m2
10:08 52.3 °F /  11.3 °C 50.7 °F /  10.4 °C 29.9in /  1013.5hPa Calm     94% 0in /  0.0mm 60 W/m2
10:13 52.3 °F /  11.3 °C 50.7 °F /  10.4 °C 29.9in /  1013.5hPa Calm     94% 0in /  0.0mm 67 W/m2
10:18 52.3 °F /  11.3 °C 50.7 °F /  10.4 °C 29.9in /  1013.5hPa Calm     94% 0in /  0.0mm 113 W/m2
10:23 52.3 °F /  11.3 °C 50.7 °F /  10.4 °C 29.9in /  1013.5hPa Calm     94% 0in /  0.0mm 130 W/m2
10:28 52.5 °F /  11.4 °C 50.5 °F /  10.3 °C 29.9in /  1013.5hPa Calm     93% 0in /  0.0mm 121 W/m2
10:33 52.5 °F /  11.4 °C 50.5 °F /  10.3 °C 29.9in /  1013.5hPa Calm     93% 0in /  0.0mm 84 W/m2
10:38 52.5 °F /  11.4 °C 50.5 °F /  10.3 °C 29.9in /  1013.9hPa Calm     93% 0in /  0.0mm 67 W/m2
10:43 52.5 °F /  11.4 °C 50.5 °F /  10.3 °C 29.9in /  1013.9hPa Calm     93% 0in /  0.0mm 79 W/m2
10:48 52.5 °F /  11.4 °C 50.5 °F /  10.3 °C 29.9in /  1013.9hPa Calm     93% 0in /  0.0mm 125 W/m2
10:53 52.5 °F /  11.4 °C 50.9 °F /  10.5 °C 29.9in /  1013.9hPa Calm     94% 0in /  0.0mm 125 W/m2
10:58 52.5 °F /  11.4 °C 50.9 °F /  10.5 °C 29.9in /  1013.9hPa Calm     94% 0in /  0.0mm 97 W/m2
11:03 52.5 °F /  11.4 °C 50.9 °F /  10.5 °C 29.9in /  1013.9hPa Calm     94% 0in /  0.0mm 97 W/m2
11:08 52.3 °F /  11.3 °C 50.9 °F /  10.5 °C 29.9in /  1013.9hPa Calm     95% 0in /  0.0mm 56 W/m2
11:14 52.3 °F /  11.3 °C 50.9 °F /  10.5 °C 29.9in /  1013.9hPa Calm     95% 0in /  0.0mm 91 W/m2
11:19 52.3 °F /  11.3 °C 50.9 °F /  10.5 °C 29.9in /  1013.9hPa Calm     95% 0in /  0.0mm 100 W/m2
11:24 52.5 °F /  11.4 °C 51.1 °F /  10.6 °C 29.9in /  1013.9hPa Calm     95% 0in /  0.0mm 218 W/m2
11:29 52.5 °F /  11.4 °C 51.1 °F /  10.6 °C 29.9in /  1013.9hPa Calm     95% 0in /  0.0mm 234 W/m2
11:34 52.9 °F /  11.6 °C 51.4 °F /  10.8 °C 29.9in /  1013.9hPa Calm     95% 0in /  0.0mm 141 W/m2
11:39 52.9 °F /  11.6 °C 51.4 °F /  10.8 °C 29.9in /  1013.9hPa Calm     95% 0in /  0.0mm 79 W/m2
11:44 52.7 °F /  11.5 °C 51.3 °F /  10.7 °C 29.9in /  1013.9hPa Calm   1mph /  1.6km/h 95% 0in /  0.0mm 98 W/m2
11:49 52.7 °F /  11.5 °C 51.3 °F /  10.7 °C 29.9in /  1013.9hPa Calm     95% 0in /  0.0mm 97 W/m2
11:54 52.5 °F /  11.4 °C 51.1 °F /  10.6 °C 29.9in /  1013.9hPa Calm   2mph /  3.2km/h 95% 0in /  0.0mm 97 W/m2
11:59 52.7 °F /  11.5 °C 51.1 °F /  10.6 °C 29.9in /  1013.9hPa Calm     94% 0in /  0.0mm 90 W/m2
12:04 52.7 °F /  11.5 °C 51.1 °F /  10.6 °C 29.9in /  1013.9hPa Calm   1mph /  1.6km/h 94% 0in /  0.0mm 105 W/m2
12:09 52.7 °F /  11.5 °C 51.1 °F /  10.6 °C 29.9in /  1013.9hPa Calm     94% 0in /  0.0mm 118 W/m2
12:14 52.9 °F /  11.6 °C 51.3 °F /  10.7 °C 29.9in /  1013.9hPa Calm     94% 0in /  0.0mm 97 W/m2
12:19 52.9 °F /  11.6 °C 51.3 °F /  10.7 °C 29.9in /  1013.9hPa Calm     94% 0in /  0.0mm 84 W/m2
12:24 52.7 °F /  11.5 °C 51.1 °F /  10.6 °C 29.9in /  1013.9hPa Calm     94% 0in /  0.0mm 125 W/m2
12:29 52.9 °F /  11.6 °C 51.3 °F /  10.7 °C 29.9in /  1013.9hPa Calm     94% 0in /  0.0mm 93 W/m2
12:34 52.9 °F /  11.6 °C 51.3 °F /  10.7 °C 29.9in /  1013.9hPa WNW 4mph /  6.4km/h 4mph /  6.4km/h 94% 0in /  0.0mm 156 W/m2
12:39 52.9 °F /  11.6 °C 51.3 °F /  10.7 °C 29.9in /  1013.5hPa Calm   1mph /  1.6km/h 94% 0in /  0.0mm 169 W/m2
12:45 53.1 °F /  11.7 °C 51.4 °F /  10.8 °C 29.9in /  1013.5hPa Calm     94% 0in /  0.0mm 125 W/m2
12:50 53.2 °F /  11.8 °C 51.6 °F /  10.9 °C 29.9in /  1013.5hPa Calm   1mph /  1.6km/h 94% 0in /  0.0mm 135 W/m2
12:55 53.2 °F /  11.8 °C 51.6 °F /  10.9 °C 29.9in /  1013.5hPa Calm     94% 0in /  0.0mm 120 W/m2
13:00 53.4 °F /  11.9 °C 51.8 °F /  11 °C 29.9in /  1013.5hPa Calm     94% 0in /  0.0mm 134 W/m2
13:05 53.6 °F /  12 °C 52 °F /  11.1 °C 29.9in /  1013.5hPa Calm     94% 0in /  0.0mm 123 W/m2
13:10 53.8 °F /  12.1 °C 52.2 °F /  11.2 °C 29.9in /  1013.5hPa Calm     94% 0in /  0.0mm 167 W/m2
13:15 53.8 °F /  12.1 °C 52.2 °F /  11.2 °C 29.9in /  1013.5hPa Calm     94% 0in /  0.0mm 174 W/m2
13:20 54 °F /  12.2 °C 52.3 °F /  11.3 °C 29.9in /  1013.5hPa Calm     94% 0in /  0.0mm 151 W/m2
13:25 54.1 °F /  12.3 °C 52.2 °F /  11.2 °C 29.9in /  1013.5hPa Calm     93% 0in /  0.0mm 169 W/m2
13:30 54.3 °F /  12.4 °C 52 °F /  11.1 °C 29.9in /  1013.5hPa Calm   1mph /  1.6km/h 92% 0in /  0.0mm 144 W/m2
13:35 54.3 °F /  12.4 °C 52.3 °F /  11.3 °C 29.9in /  1013.5hPa Calm     93% 0in /  0.0mm 190 W/m2
13:40 54.5 °F /  12.5 °C 52.2 °F /  11.2 °C 29.9in /  1013.5hPa Calm     92% 0in /  0.0mm 141 W/m2
13:45 54.5 °F /  12.5 °C 52.2 °F /  11.2 °C 29.9in /  1013.5hPa Calm     92% 0in /  0.0mm 72 W/m2
13:50 54.3 °F /  12.4 °C 52 °F /  11.1 °C 29.9in /  1013.5hPa West 2.9mph /  4.7km/h 3mph /  4.8km/h 92% 0in /  0.0mm 97 W/m2
13:55 54.3 °F /  12.4 °C 52 °F /  11.1 °C 29.9in /  1013.5hPa Calm     92% 0in /  0.0mm 95 W/m2
14:00 54.3 °F /  12.4 °C 52 °F /  11.1 °C 29.9in /  1013.5hPa Calm     92% 0in /  0.0mm 116 W/m2
14:05 54.3 °F /  12.4 °C 52.3 °F /  11.3 °C 29.9in /  1013.5hPa Calm     93% 0in /  0.0mm 123 W/m2
14:10 54.1 °F /  12.3 °C 51.8 °F /  11 °C 29.9in /  1013.2hPa Calm     92% 0in /  0.0mm 114 W/m2
14:15 54.3 °F /  12.4 °C 52 °F /  11.1 °C 29.9in /  1013.2hPa Calm     92% 0in /  0.0mm 93 W/m2
14:20 54.3 °F /  12.4 °C 52 °F /  11.1 °C 29.9in /  1013.2hPa Calm     92% 0in /  0.0mm 86 W/m2
14:26 54.3 °F /  12.4 °C 52 °F /  11.1 °C 29.9in /  1013.2hPa Calm     92% 0in /  0.0mm 74 W/m2
14:31 54.3 °F /  12.4 °C 51.8 °F /  11 °C 29.9in /  1013.2hPa Calm     91% 0in /  0.0mm 69 W/m2
14:36 54.3 °F /  12.4 °C 52 °F /  11.1 °C 29.9in /  1013.2hPa Calm     92% 0in /  0.0mm 118 W/m2
14:41 54.3 °F /  12.4 °C 52 °F /  11.1 °C 29.9in /  1013.2hPa Calm     92% 0in /  0.0mm 114 W/m2
14:46 54.5 °F /  12.5 °C 52.2 °F /  11.2 °C 29.9in /  1013.2hPa Calm     92% 0in /  0.0mm 97 W/m2
14:51 54.5 °F /  12.5 °C 52.2 °F /  11.2 °C 29.9in /  1013.2hPa Calm     92% 0in /  0.0mm 86 W/m2
14:56 54.5 °F /  12.5 °C 52.2 °F /  11.2 °C 29.9in /  1013.2hPa Calm   1mph /  1.6km/h 92% 0in /  0.0mm 76 W/m2
15:01 54.3 °F /  12.4 °C 52 °F /  11.1 °C 29.9in /  1013.2hPa Calm   1mph /  1.6km/h 92% 0in /  0.0mm 125 W/m2
15:06 54.5 °F /  12.5 °C 52.2 °F /  11.2 °C 29.9in /  1013.2hPa Calm     92% 0in /  0.0mm 104 W/m2
15:11 54.7 °F /  12.6 °C 52.3 °F /  11.3 °C 29.9in /  1013.2hPa Calm     92% 0in /  0.0mm 135 W/m2
15:16 54.7 °F /  12.6 °C 52.3 °F /  11.3 °C 29.9in /  1013.2hPa Calm     92% 0in /  0.0mm 77 W/m2
15:21 54.7 °F /  12.6 °C 52.3 °F /  11.3 °C 29.9in /  1013.2hPa Calm     92% 0in /  0.0mm 53 W/m2
15:26 54.7 °F /  12.6 °C 52.2 °F /  11.2 °C 29.9in /  1013.2hPa Calm     91% 0in /  0.0mm 83 W/m2
15:31 54.7 °F /  12.6 °C 52.3 °F /  11.3 °C 29.9in /  1013.2hPa Calm   4mph /  6.4km/h 92% 0in /  0.0mm 49 W/m2
15:36 54.7 °F /  12.6 °C 52.3 °F /  11.3 °C 29.9in /  1013.2hPa Calm     92% 0in /  0.0mm 51 W/m2
15:41 54.7 °F /  12.6 °C 52.3 °F /  11.3 °C 29.9in /  1013.2hPa Calm     92% 0in /  0.0mm 46 W/m2
15:46 54.7 °F /  12.6 °C 52.3 °F /  11.3 °C 29.9in /  1013.2hPa Calm     92% 0in /  0.0mm 58 W/m2
15:51 54.7 °F /  12.6 °C 52.3 °F /  11.3 °C 29.9in /  1013.2hPa Calm     92% 0in /  0.0mm 76 W/m2
15:56 54.7 °F /  12.6 °C 52.3 °F /  11.3 °C 29.9in /  1013.2hPa Calm   1mph /  1.6km/h 92% 0in /  0.0mm 44 W/m2
16:01 54.7 °F /  12.6 °C 52.3 °F /  11.3 °C 29.9in /  1013.2hPa Calm     92% 0in /  0.0mm 26 W/m2
16:06 54.5 °F /  12.5 °C 52.5 °F /  11.4 °C 29.9in /  1013.2hPa Calm     93% 0in /  0.0mm 32 W/m2
16:11 54.3 °F /  12.4 °C 52.3 °F /  11.3 °C 29.9in /  1013.2hPa Calm     93% 0in /  0.0mm 26 W/m2
16:16 54.3 °F /  12.4 °C 52.3 °F /  11.3 °C 29.9in /  1013.2hPa Calm     93% 0in /  0.0mm 23 W/m2
16:21 54.1 °F /  12.3 °C 52.2 °F /  11.2 °C 29.9in /  1013.2hPa Calm     93% 0in /  0.0mm 26 W/m2
16:26 54 °F /  12.2 °C 52.3 °F /  11.3 °C 29.9in /  1012.9hPa Calm     94% 0in /  0.0mm 16 W/m2
16:31 54 °F /  12.2 °C 52.3 °F /  11.3 °C 29.9in /  1012.9hPa Calm     94% 0.01in /  0.2mm 16 W/m2
16:36 53.8 °F /  12.1 °C 52.2 °F /  11.2 °C 29.9in /  1012.9hPa Calm     94% 0.01in /  0.2mm 37 W/m2
16:41 53.8 °F /  12.1 °C 52.2 °F /  11.2 °C 29.9in /  1012.9hPa Calm     94% 0.01in /  0.2mm 30 W/m2
16:46 53.6 °F /  12 °C 52 °F /  11.1 °C 29.9in /  1012.9hPa Calm     94% 0.01in /  0.2mm 16 W/m2
16:51 53.6 °F /  12 °C 52 °F /  11.1 °C 29.9in /  1012.9hPa Calm   2mph /  3.2km/h 94% 0.01in /  0.2mm 11 W/m2
16:56 53.6 °F /  12 °C 52 °F /  11.1 °C 29.9in /  1012.9hPa Calm     94% 0.01in /  0.2mm 7 W/m2
17:01 53.4 °F /  11.9 °C 52 °F /  11.1 °C 29.9in /  1012.9hPa Calm     95% 0.01in /  0.2mm 5 W/m2
17:07 53.4 °F /  11.9 °C 52 °F /  11.1 °C 29.9in /  1012.9hPa Calm     95% 0.01in /  0.2mm 7 W/m2
17:12 53.4 °F /  11.9 °C 52 °F /  11.1 °C 29.9in /  1012.9hPa Calm     95% 0.01in /  0.2mm 5 W/m2
17:17 53.2 °F /  11.8 °C 51.8 °F /  11 °C 29.9in /  1013.2hPa Calm     95% 0.01in /  0.2mm 0 W/m2
17:22 53.2 °F /  11.8 °C 51.8 °F /  11 °C 29.9in /  1013.2hPa Calm     95% 0.01in /  0.2mm 0 W/m2
17:27 53.2 °F /  11.8 °C 51.8 °F /  11 °C 29.9in /  1013.2hPa Calm     95% 0.02in /  0.5mm 0 W/m2
17:32 53.2 °F /  11.8 °C 51.8 °F /  11 °C 29.9in /  1012.9hPa Calm     95% 0.01in /  0.2mm 0 W/m2
17:37 53.2 °F /  11.8 °C 51.8 °F /  11 °C 29.9in /  1013.2hPa Calm     95% 0.01in /  0.2mm 0 W/m2
17:42 53.2 °F /  11.8 °C 51.8 °F /  11 °C 29.9in /  1013.2hPa Calm     95% 0.01in /  0.2mm 0 W/m2
17:47 53.1 °F /  11.7 °C 51.6 °F /  10.9 °C 29.9in /  1013.2hPa Calm     95% 0.01in /  0.2mm 0 W/m2
17:52 53.1 °F /  11.7 °C 51.6 °F /  10.9 °C 29.9in /  1012.9hPa Calm     95% 0.01in /  0.2mm 0 W/m2
17:57 53.1 °F /  11.7 °C 51.6 °F /  10.9 °C 29.9in /  1012.9hPa Calm     95% 0.01in /  0.2mm 0 W/m2
18:02 53.1 °F /  11.7 °C 51.6 °F /  10.9 °C 29.9in /  1012.9hPa Calm     95% 0.01in /  0.2mm 0 W/m2
18:07 53.1 °F /  11.7 °C 51.6 °F /  10.9 °C 29.9in /  1012.9hPa Calm     95% 0.01in /  0.2mm 0 W/m2
18:12 53.1 °F /  11.7 °C 51.6 °F /  10.9 °C 29.9in /  1012.9hPa Calm     95% 0.01in /  0.2mm 0 W/m2
18:17 53.2 °F /  11.8 °C 51.8 °F /  11 °C 29.9in /  1012.9hPa Calm     95% 0.01in /  0.2mm 0 W/m2
18:22 53.2 °F /  11.8 °C 51.8 °F /  11 °C 29.9in /  1012.9hPa Calm     95% 0in /  0.0mm 0 W/m2
18:27 53.2 °F /  11.8 °C 51.8 °F /  11 °C 29.9in /  1012.9hPa Calm     95% 0in /  0.0mm 0 W/m2
18:32 53.2 °F /  11.8 °C 51.8 °F /  11 °C 29.9in /  1012.9hPa Calm     95% 0in /  0.0mm 0 W/m2
18:37 53.2 °F /  11.8 °C 51.8 °F /  11 °C 29.9in /  1012.9hPa Calm   1mph /  1.6km/h 95% 0in /  0.0mm 0 W/m2
18:43 53.2 °F /  11.8 °C 51.8 °F /  11 °C 29.9in /  1013.2hPa Calm     95% 0in /  0.0mm 0 W/m2
18:48 53.2 °F /  11.8 °C 51.8 °F /  11 °C 29.9in /  1013.2hPa Calm   1mph /  1.6km/h 95% 0in /  0.0mm 0 W/m2
18:53 53.2 °F /  11.8 °C 51.6 °F /  10.9 °C 29.9in /  1013.2hPa Calm     94% 0in /  0.0mm 0 W/m2
18:58 53.2 °F /  11.8 °C 51.6 °F /  10.9 °C 29.9in /  1013.2hPa Calm     94% 0in /  0.0mm 0 W/m2
19:03 53.2 °F /  11.8 °C 51.6 °F /  10.9 °C 29.9in /  1013.2hPa Calm     94% 0in /  0.0mm 0 W/m2
19:08 53.1 °F /  11.7 °C 51.6 °F /  10.9 °C 29.9in /  1013.2hPa Calm     95% 0in /  0.0mm 0 W/m2
19:13 53.1 °F /  11.7 °C 51.6 °F /  10.9 °C 29.9in /  1013.2hPa Calm     95% 0in /  0.0mm 0 W/m2
19:18 53.1 °F /  11.7 °C 51.6 °F /  10.9 °C 29.9in /  1013.2hPa Calm     95% 0in /  0.0mm 0 W/m2
19:23 52.9 °F /  11.6 °C 51.4 °F /  10.8 °C 29.9in /  1013.2hPa Calm     95% 0in /  0.0mm 0 W/m2
19:28 52.9 °F /  11.6 °C 51.4 °F /  10.8 °C 29.9in /  1012.9hPa Calm     95% 0in /  0.0mm 0 W/m2
19:33 53.1 °F /  11.7 °C 51.6 °F /  10.9 °C 29.9in /  1012.9hPa Calm     95% 0in /  0.0mm 0 W/m2
19:38 53.1 °F /  11.7 °C 51.6 °F /  10.9 °C 29.9in /  1012.9hPa Calm     95% 0in /  0.0mm 0 W/m2
19:43 53.1 °F /  11.7 °C 51.4 °F /  10.8 °C 29.9in /  1012.9hPa Calm   1mph /  1.6km/h 94% 0in /  0.0mm 0 W/m2
19:48 53.1 °F /  11.7 °C 51.4 °F /  10.8 °C 29.9in /  1012.9hPa Calm     94% 0in /  0.0mm 0 W/m2
19:53 53.1 °F /  11.7 °C 51.4 °F /  10.8 °C 29.9in /  1012.9hPa Calm   3mph /  4.8km/h 94% 0in /  0.0mm 0 W/m2
19:58 53.1 °F /  11.7 °C 51.4 °F /  10.8 °C 29.9in /  1012.9hPa Calm     94% 0in /  0.0mm 0 W/m2
20:03 52.9 °F /  11.6 °C 51.3 °F /  10.7 °C 29.9in /  1012.9hPa WNW 3mph /  4.8km/h 3mph /  4.8km/h 94% 0in /  0.0mm 0 W/m2
20:08 52.9 °F /  11.6 °C 51.3 °F /  10.7 °C 29.9in /  1012.9hPa Calm     94% 0in /  0.0mm 0 W/m2
20:13 52.9 °F /  11.6 °C 51.3 °F /  10.7 °C 29.9in /  1012.9hPa Calm     94% 0in /  0.0mm 0 W/m2
20:18 52.9 °F /  11.6 °C 51.3 °F /  10.7 °C 29.9in /  1012.9hPa Calm     94% 0in /  0.0mm 0 W/m2
20:24 52.9 °F /  11.6 °C 51.3 °F /  10.7 °C 29.9in /  1012.9hPa Calm   1mph /  1.6km/h 94% 0in /  0.0mm 0 W/m2
20:29 52.9 °F /  11.6 °C 51.3 °F /  10.7 °C 29.9in /  1012.5hPa Calm     94% 0in /  0.0mm 0 W/m2
20:34 52.9 °F /  11.6 °C 51.3 °F /  10.7 °C 29.9in /  1012.5hPa Calm     94% 0in /  0.0mm 0 W/m2
20:39 52.9 °F /  11.6 °C 51.3 °F /  10.7 °C 29.9in /  1012.5hPa Calm   1mph /  1.6km/h 94% 0in /  0.0mm 0 W/m2
20:44 52.9 °F /  11.6 °C 51.3 °F /  10.7 °C 29.9in /  1012.5hPa Calm     94% 0in /  0.0mm 0 W/m2
20:49 52.9 °F /  11.6 °C 51.3 °F /  10.7 °C 29.9in /  1012.5hPa Calm     94% 0in /  0.0mm 0 W/m2
20:54 52.9 °F /  11.6 °C 51.3 °F /  10.7 °C 29.9in /  1012.5hPa Calm     94% 0in /  0.0mm 0 W/m2
20:59 52.9 °F /  11.6 °C 51.3 °F /  10.7 °C 29.9in /  1012.5hPa Calm     94% 0in /  0.0mm 0 W/m2
21:04 52.9 °F /  11.6 °C 51.3 °F /  10.7 °C 29.9in /  1012.5hPa Calm     94% 0in /  0.0mm 0 W/m2
21:09 52.9 °F /  11.6 °C 51.3 °F /  10.7 °C 29.9in /  1012.5hPa Calm     94% 0in /  0.0mm 0 W/m2
21:14 52.9 °F /  11.6 °C 51.3 °F /  10.7 °C 29.9in /  1012.5hPa Calm     94% 0in /  0.0mm 0 W/m2
21:19 52.9 °F /  11.6 °C 51.3 °F /  10.7 °C 29.9in /  1012.5hPa Calm     94% 0in /  0.0mm 0 W/m2
21:24 52.9 °F /  11.6 °C 50.9 °F /  10.5 °C 29.9in /  1012.5hPa Calm     93% 0in /  0.0mm 0 W/m2
21:29 52.9 °F /  11.6 °C 50.9 °F /  10.5 °C 29.9in /  1012.5hPa Calm     93% 0in /  0.0mm 0 W/m2
21:34 52.9 °F /  11.6 °C 50.9 °F /  10.5 °C 29.9in /  1012.5hPa Calm     93% 0in /  0.0mm 0 W/m2
21:39 52.9 °F /  11.6 °C 50.9 °F /  10.5 °C 29.9in /  1012.5hPa Calm     93% 0in /  0.0mm 0 W/m2
21:44 52.9 °F /  11.6 °C 50.9 °F /  10.5 °C 29.9in /  1012.5hPa Calm     93% 0in /  0.0mm 0 W/m2
21:49 52.9 °F /  11.6 °C 50.9 °F /  10.5 °C 29.9in /  1012.9hPa Calm     93% 0in /  0.0mm 0 W/m2
21:54 52.9 °F /  11.6 °C 50.9 °F /  10.5 °C 29.9in /  1012.9hPa Calm     93% 0in /  0.0mm 0 W/m2
22:00 52.9 °F /  11.6 °C 50.9 °F /  10.5 °C 29.9in /  1012.9hPa Calm     93% 0in /  0.0mm 0 W/m2
22:05 52.9 °F /  11.6 °C 50.5 °F /  10.3 °C 29.9in /  1012.5hPa Calm     92% 0in /  0.0mm 0 W/m2
22:10 52.9 °F /  11.6 °C 50.5 °F /  10.3 °C 29.9in /  1012.5hPa Calm   7mph /  11.3km/h 92% 0in /  0.0mm 0 W/m2
22:15 52.9 °F /  11.6 °C 50.5 °F /  10.3 °C 29.9in /  1012.5hPa Calm     92% 0in /  0.0mm 0 W/m2
22:20 52.7 °F /  11.5 °C 50.4 °F /  10.2 °C 29.9in /  1012.5hPa Calm     92% 0in /  0.0mm 0 W/m2
22:25 52.7 °F /  11.5 °C 50.4 °F /  10.2 °C 29.9in /  1012.5hPa Calm     92% 0in /  0.0mm 0 W/m2
22:30 52.9 °F /  11.6 °C 50.4 °F /  10.2 °C 29.9in /  1012.2hPa Calm   1mph /  1.6km/h 91% 0in /  0.0mm 0 W/m2
22:35 52.7 °F /  11.5 °C 50.2 °F /  10.1 °C 29.9in /  1012.5hPa Calm     91% 0in /  0.0mm 0 W/m2
22:40 52.9 °F /  11.6 °C 50.4 °F /  10.2 °C 29.9in /  1012.2hPa Calm     91% 0in /  0.0mm 0 W/m2
22:45 52.7 °F /  11.5 °C 50.2 °F /  10.1 °C 29.9in /  1012.2hPa SSW 0.9mph /  1.4km/h 1mph /  1.6km/h 91% 0in /  0.0mm 0 W/m2
22:50 52.5 °F /  11.4 °C 50 °F /  10 °C 29.9in /  1012.2hPa Calm     91% 0in /  0.0mm 0 W/m2
22:55 52.5 °F /  11.4 °C 50.2 °F /  10.1 °C 29.9in /  1011.9hPa Calm     92% 0in /  0.0mm 0 W/m2
23:00 52.3 °F /  11.3 °C 50 °F /  10 °C 29.9in /  1011.9hPa Calm     92% 0in /  0.0mm 0 W/m2
23:05 52.3 °F /  11.3 °C 50.4 °F /  10.2 °C 29.9in /  1011.9hPa Calm     93% 0in /  0.0mm 0 W/m2
23:10 52.2 °F /  11.2 °C 50.2 °F /  10.1 °C 29.9in /  1011.9hPa Calm   1mph /  1.6km/h 93% 0in /  0.0mm 0 W/m2
23:15 52.2 °F /  11.2 °C 50.2 °F /  10.1 °C 29.9in /  1012.2hPa Calm     93% 0in /  0.0mm 0 W/m2
23:20 52.2 °F /  11.2 °C 50.2 °F /  10.1 °C 29.9in /  1012.2hPa Calm     93% 0in /  0.0mm 0 W/m2
23:25 52.2 °F /  11.2 °C 50.2 °F /  10.1 °C 29.9in /  1012.2hPa Calm     93% 0in /  0.0mm 0 W/m2
23:30 52.2 °F /  11.2 °C 50.2 °F /  10.1 °C 29.9in /  1012.2hPa Calm     93% 0in /  0.0mm 0 W/m2
23:35 52.2 °F /  11.2 °C 50.2 °F /  10.1 °C 29.9in /  1012.2hPa Calm     93% 0in /  0.0mm 0 W/m2
23:40 52.2 °F /  11.2 °C 50.5 °F /  10.3 °C 29.9in /  1012.5hPa Calm     94% 0in /  0.0mm 0 W/m2
23:45 52 °F /  11.1 °C 50 °F /  10 °C 29.9in /  1012.2hPa Calm     93% 0in /  0.0mm 0 W/m2
23:50 52 °F /  11.1 °C 50.4 °F /  10.2 °C 29.9in /  1012.2hPa Calm     94% 0in /  0.0mm 0 W/m2
23:55 52 °F /  11.1 °C 50.4 °F /  10.2 °C 29.9in /  1012.2hPa Calm     94% 0in /  0.0mm 0 W/m2
Juneau County Weather
Compliments of Weather Underground - 4 mb